Tracking 28790 objects as of 18-Apr-2024
HD Live streaming from Space Station
objects crossing your sky now

PEGASUS R/B

Track PEGASUS R/B now!
10-day predictions


NORAD ID: 23548
Int'l Code: 1995-017D
Perigee: 720.3 km
Apogee: 734.4 km
Inclination: 70.0 °
Period: 99.2 minutes
Semi major axis: 7098 km
RCS: 1.5717 m2 (large)
Launch date: April 3, 1995
Source: United States (US)
Launch site: AIR FORCE WESTERN TEST RANGE (AFWTR)

Note: This is a ROCKET BODY
Your satellite tracking list
Your tracking list is empty




NASA's NSSDC Master Catalog

Two Line Element Set (TLE):
1 23548U 95017D   24109.74498687  .00001457  00000-0  37815-3 0  9997
2 23548  69.9889 218.2403 0009962 174.2691 299.4311 14.51657854536299
Source of the keplerian elements: AFSPC